Location: Newark
(51.2625°N, 13.3939°E)
Time: 18:06:53
(UTC+00:00)

deb Explorer IX - Pass Details

Date: 23 November 2019
Orbit: 545 x 1105 km, 38.8° (Epoch: 08 December)

Event Time Altitude Azimuth Distance (km) Brightness Sun altitude
Rises 22:36:06 0° 225° (SW) 3,875 - -59.0°
Reaches altitude 10° 22:39:34 10° 211° (SSW) 2,871 - -59.1°
Maximum altitude 22:44:39 22° 165° (SSE) 2,033 - -59.1°
Drops below altitude 10° 22:49:23 10° 117° (ESE) 2,635 - -59.2°
Sets 22:52:24 0° 102° (ESE) 3,479 - -59.2°
